Change the Weather History Date:

Tuesday, April 1, 2014

  Actual Average Record
Temperature  
Mean Temperature 51 °F 46 °F  
Max Temperature 70 °F 63 °F 87 °F (2012)
Min Temperature 32 °F 30 °F 12 °F (1936)
Degree Days  
Heating Degree Days 14 19  
Month to date heating degree days 14 19  
Since 1 July heating degree days 4891 5024  
Cooling Degree Days 0 0  
Month to date cooling degree days 0 0  
Year to date cooling degree days 0 0  
Growing Degree Days 1 (Base 50)    
Moisture  
Dew Point 19 °F    
Average Humidity 34    
Maximum Humidity 59    
Minimum Humidity 9    
Precipitation  
Precipitation 0.00 in 0.03 in 1.10 in (1905)
Month to date precipitation 0.00 0.03  
Year to date precipitation 1.49 1.61  
Snow  
Snow 0.00 in 0.20 in 8.90 in (1988)
Month to date snowfall 0.0 0.2  
Since 1 July snowfall 21.0 27.7  
Snow Depth 0.00 in    
Sea Level Pressure  
Sea Level Pressure 29.72 in    
Wind  
Wind Speed 8 mph (East)    
Max Wind Speed 21 mph    
Max Gust Speed 26 mph    
Visibility 10 miles    
Events      
T = Trace of Precipitation, MM = Missing Value Source: NWS Daily Summary

Daily Weather History Graph

Daily Weather History Graph

Search for Another Location

Airport or City:

Trip Planner

Search our weather history database for the weather conditions in past years. The results will help you decide how hot, cold, wet, or windy it might be!

Date:

Astronomy

Apr. 01, 2014 Rise Set
Actual Time 6:42 AM MDT 7:21 PM MDT
Civil Twilight 6:16 AM MDT 7:47 PM MDT
Nautical Twilight 5:44 AM MDT 8:19 PM MDT
Astronomical Twilight 5:12 AM MDT 8:51 PM MDT
Moon 7:48 AM MDT (4/1) 9:44 PM MDT (4/1)
Length of Visible Light 13h 31m
Length of Day
12h 38m
Waxing Crescent, 5% of the Moon is Illuminated
Apr 1
Waxing Crescent
Apr 7
First Quarter
Apr 15
Full
Apr 22
Last Quarter
Apr 29
New

Hourly Weather History & Observations

Time (MDT) Temp. Windchill Dew Point Humidity Pressure Visibility Wind Dir Wind Speed Gust Speed Precip Events Conditions
12:53 AM 39.9 °F 33.9 °F 19.0 °F 43% 29.96 in 10.0 mi ESE 9.2 mph - N/A   Mostly Cloudy
1:53 AM 37.0 °F 29.3 °F 19.0 °F 48% 29.94 in 10.0 mi East 11.5 mph - N/A   Clear
2:53 AM 36.0 °F 28.5 °F 21.0 °F 55% 29.93 in 10.0 mi East 10.4 mph - N/A   Clear
3:53 AM 35.1 °F 27.4 °F 21.0 °F 57% 29.92 in 10.0 mi ESE 10.4 mph - N/A   Clear
4:53 AM 35.1 °F 28.6 °F 19.9 °F 54% 29.91 in 10.0 mi SE 8.1 mph - N/A   Partly Cloudy
5:53 AM 33.1 °F 25.5 °F 19.9 °F 59% 29.90 in 10.0 mi ENE 9.2 mph - N/A   Clear
6:53 AM 32.0 °F 24.8 °F 19.0 °F 59% 29.89 in 10.0 mi ENE 8.1 mph - N/A   Clear
7:53 AM 33.1 °F 26.9 °F 19.9 °F 59% 29.90 in 10.0 mi ENE 6.9 mph - N/A   Clear
8:53 AM 36.0 °F - 19.9 °F 52% 29.88 in 10.0 mi Calm Calm - N/A   Clear
9:53 AM 39.0 °F 34.8 °F 19.9 °F 46% 29.85 in 10.0 mi East 5.8 mph - N/A   Clear
10:53 AM 42.1 °F - 19.9 °F 41% 29.81 in 10.0 mi Calm Calm - N/A   Clear
11:53 AM 46.0 °F - 21.0 °F 37% 29.75 in 10.0 mi Calm Calm - N/A   Clear
12:53 PM 53.1 °F - 19.9 °F 27% 29.68 in 10.0 mi Calm Calm - N/A   Clear
1:53 PM 59.0 °F - 19.9 °F 22% 29.62 in 10.0 mi East 6.9 mph - N/A   Clear
2:53 PM 63.0 °F - 17.1 °F 17% 29.56 in 10.0 mi East 5.8 mph - N/A   Clear
3:53 PM 66.0 °F - 16.0 °F 15% 29.52 in 10.0 mi ENE 4.6 mph - N/A   Mostly Cloudy
4:53 PM 66.9 °F - 14.0 °F 13% 29.51 in 10.0 mi East 8.1 mph - N/A   Overcast
5:53 PM 68.0 °F - 12.0 °F 11% 29.50 in 9.0 mi Calm Calm - N/A   Overcast
6:53 PM 68.0 °F - 8.1 °F 10% 29.52 in 8.0 mi WSW 13.8 mph 23.0 mph N/A   Overcast
7:53 PM 66.0 °F - 8.1 °F 10% 29.53 in 9.0 mi WSW 15.0 mph 21.9 mph N/A   Overcast
8:53 PM 57.0 °F - 17.1 °F 21% 29.56 in 8.0 mi NE 10.4 mph - N/A   Overcast
9:53 PM 50.0 °F - 23.0 °F 35% 29.60 in 7.0 mi East 10.4 mph - N/A   Overcast
10:53 PM 48.0 °F - 25.0 °F 41% 29.61 in 10.0 mi North 13.8 mph - N/A   Overcast
11:53 PM 46.0 °F 38.8 °F 26.1 °F 46% 29.62 in 10.0 mi NE 18.4 mph - N/A   Overcast